Погода в Аверьяновке

Россия / Республика Дагестан     43˚50′42″N   46˚45′11″E
темп.,
°C
ветер,
м/с
пор.,
м/с
влажн.,
%
обл.,
%
осадки,
мм/ч
давл.,
гПа
погр.,
м
17 января, вс
вс1700:00+3˚всв5881100 0.0 1016427
03:00+3˚всв61085100 0.1 1013470
06:00+3˚всв71282100 0.1 1011529
09:00+3˚всв81383100 0.3 1009565
12:00+5˚всв81281100 0.1 1006621
15:00+4˚всв71187100 0.3 1005451
18:00+4˚всв5984100 0.0 1005439
21:00+3˚св4785100 0.0 1004354
18 января, пн
пн1800:00+2˚ссв3690100 0.0 1003237
03:00+1˚ссв3591100 0.0 1002266
06:00сз5890100 0.0 1002285
09:00+1˚сз6983100 0.0 1006419
12:00+2˚зсз81272100 0.0 1008670
15:00+4˚зсз91264100 0.0 10101008
18:00+2˚зсз71262100 0.0 10131001
21:00зсз7116988 0.0 1015687
19 января, вт
вт1900:00−2˚зсз6107052 0.0 1016638
03:00−3˚зсз477175 0.0 1017610
06:00−3˚сз4775100 0.1 1019733
09:00−2˚сз4764100 0.1 1020696
12:00−1˚сз4554100 0.0 1019702
15:00−1˚ссз1151100 0.0 1018590
18:00−3˚юз1191100 0.2 1019139
21:00−3˚ссв2395100 1.2 1020177
20 января, ср
ср2000:00−3˚в2393100 0.5 1020161
03:00−3˚юв2391100 0.5 1021101
06:00−4˚ююв129588 0.0 102122
09:00−2˚с348857 0.0 1023189
12:00+1˚с3463100 0.1 1023762
15:00ссв3468100 0.1 1024724
18:00−3˚с1195100 0.1 102725
21:00−3˚зюз239493 0.1 102842
21 января, чт
чт2100:00−4˚с239194 0.1 1029178
03:00−4˚ссз249097 0.1 1030297
06:00−5˚ссз258666 0.0 1031264
09:00−4˚сз487177 0.0 1033797
12:00−2˚сз695556 0.0 1033972
15:00−1˚сз465428 0.0 1033898
18:00−4˚с23650 0.0 103542
21:00−5˚юв22640 0.0 103623